Location: Parrochia di Chiarino
(43.4000°N, 13.6000°E)
Time: 22:36:34
(UTC+00:00)

Daily predictions for brighter satellites

Satellite Brightness Start Highest point End
(mag) Time Altitude Azimuth Time Altitude Azimuth Time Altitude Azimuth
MOS 1 Rocket 4.2 17:21:53 10° NE 17:25:17 22° E 17:28:36 10° SE
PSLV R/B 4.1 17:21:30 10° NNE 17:25:43 82° WNW 17:29:55 10° SSW
ARGOS 4.1 17:24:13 10° ESE 17:28:42 28° ENE 17:33:13 10° N
NOSS 2-2 (C) 4.0 17:25:44 10° SW 17:29:08 51° NW 17:32:54 10° NNE
NOSS 3-2 (A) 4.2 17:22:51 10° NNW 17:30:18 63° NE 17:38:42 10° SE
CZ-2C R/B 4.1 17:29:45 10° NE 17:33:17 17° E 17:36:49 10° SE
Cosmos 2151 Rocket 4.1 17:33:57 10° SSE 17:38:01 36° E 17:42:10 10° NNE
Lacrosse 5 rocket 3.9 17:37:49 10° NW 17:40:05 14° N 17:42:25 10° NNE
Cosmos 1975 Rocket 3.4 17:36:53 10° NNW 17:41:12 68° W 17:45:28 10° S
HJ-1C 3.9 17:40:21 10° SE 17:43:24 36° ENE 17:46:28 10° N
COSMO-SKYMED 1 4.0 17:46:32 10° N 17:50:40 43° WNW 17:54:47 10° SW
Shenzhou-11 Module 2.7 17:49:14 10° SSW 17:50:56 21° SSE 17:51:33 18° SE
Cosmos 1805 4.4 17:48:21 10° SE 17:51:24 22° E 17:54:28 10° NE
Ariane Rocket 4.0 17:47:53 11° ESE 17:51:53 26° ENE 17:56:02 10° N
H-2A R/B 2.1 17:47:47 10° SSE 17:52:38 56° ENE 17:57:39 10° N
Nadezhda 4 Rocket 4.1 17:48:09 10° N 17:54:05 50° ENE 18:00:01 10° SSE
Exosat Rocket 3.9 17:51:51 10° S 17:57:05 42° ESE 18:01:47 10° NE
Cosmos 2263 Rocket 4.4 17:53:44 10° WSW 17:58:24 27° NW 18:03:07 10° N
USA 116 3.7 17:57:13 10° NNE 18:00:57 88° WNW 18:05:10 10° SSW
Cosmos 1844 Rocket 2.6 17:56:53 10° SSW 18:02:27 82° ESE 18:08:04 10° NNE
COSMOS 2406 4.5 17:58:41 10° N 18:03:11 23° NE 18:05:51 17° E
KORONAS-FOTON 4.5 18:00:00 10° N 18:03:38 35° ENE 18:06:24 15° SE
Cosmos 1707 3.3 18:02:30 10° NNW 18:06:18 59° W 18:10:03 10° S
Cosmos 2278 Rocket 4.0 18:03:19 10° SE 18:10:00 11° ENE 18:10:28 10° ENE
Cosmos 1626 3.8 18:05:16 10° NNE 18:07:28 17° ENE 18:07:28 17° ENE
CZ-2C R/B 3.4 18:06:38 10° SW 18:08:34 14° SSW 18:10:26 10° SSE
NOSS 3-2 (C) 4.1 18:01:03 10° NNW 18:08:35 68° NE 18:16:08 14° SE
Cosmos 2034 Rocket 4.0 18:03:33 10° S 18:09:52 71° E 18:16:11 10° NNE
Cosmos 1844 3.6 18:04:13 10° SSW 18:09:54 75° ESE 18:15:32 10° NNE
NOSS 3-4 (A) 3.6 18:05:55 10° S 18:11:26 45° ESE 18:17:17 10° NE
NOSS 3-4 (C) 3.6 18:06:01 10° S 18:11:33 45° ESE 18:17:23 10° NE
USA 186 2.6 18:11:03 28° E 18:11:46 31° ENE 18:14:42 10° N
ISS -1.7 18:09:24 10° WNW 18:12:12 23° NNW 18:14:49 11° NE
Meteor 2-5 Rocket 4.2 18:08:59 10° N 18:14:18 39° ENE 18:18:15 17° SE
Meteor 1-24 Rocket 4.5 18:11:52 10° N 18:16:51 32° ENE 18:19:24 23° ESE
Cosmos 1300 Rocket 4.2 18:14:23 10° SSW 18:18:43 58° W 18:23:07 10° N
Okean 1 Rocket 3.2 18:17:34 10° SSE 18:21:53 49° E 18:26:14 10° NNE
Resurs 01 Rocket 3.5 18:25:52 16° NE 18:25:52 16° NE 18:27:58 10° NNE
SL-14 R/B 4.5 18:23:34 10° NNE 18:26:27 25° ENE 18:26:27 25° ENE
CENTAUR R/B 3.2 18:19:32 10° NW 18:27:43 81° NE 18:34:46 18° SE
Cosmos 1833 Rocket 3.8 18:24:00 10° N 18:28:46 27° NE 18:30:11 24° ENE
CSL-04 Rocket 4.3 18:25:24 10° S 18:30:45 58° W 18:36:13 10° NNW
Cosmos 1766 3.3 18:29:06 10° S 18:32:55 54° E 18:36:47 10° NNE
ATLAS 2AS CENTAUR R/B 3.0 18:26:06 10° SSW 18:33:52 63° ESE 18:41:40 10° NE
Cosmos 1025 Rocket 4.2 18:31:29 10° NNW 18:35:41 44° W 18:39:52 10° SSW
Cosmos 1634 Rocket 4.1 18:31:43 10° SSE 18:37:38 51° E 18:43:36 10° NNE
ATLAS 3B R/B 3.4 18:33:26 10° NNW 18:39:49 39° NE 18:42:34 29° E
SPOT 3 Rocket 4.2 18:40:10 32° E 18:40:43 32° ENE 18:45:16 10° N
Abrixas rocket 2.2 18:39:44 10° WNW 18:42:11 60° NW 18:42:11 60° NW
CREW DRAGON DEMO-1 DEB 3.0 18:41:32 10° NW 18:44:16 68° NNW 18:44:16 68° NNW
Cosmos 1125 Rocket 4.2 18:41:02 10° SW 18:46:14 57° WNW 18:51:30 10° NNE
Resurs 1-3 4.3 18:48:54 37° ENE 18:48:54 37° ENE 18:52:34 10° N
SJ-6B 2.5 18:48:31 68° E 18:48:43 70° ENE 18:52:29 10° N
CZ-4 R/B 4.5 18:48:48 10° SW 18:51:22 16° W 18:53:56 10° NW
Cosmos 1892 Rocket 4.4 18:48:18 10° N 18:51:24 33° NE 18:51:24 33° NE
Cosmos 2195 Rocket 4.4 18:49:42 10° N 18:55:58 82° E 19:00:07 22° SSE
Cosmos 2285 Rocket 4.4 18:50:39 10° SSW 18:56:54 66° WNW 19:03:15 10° NNE
Cosmos 1627 Rocket 4.4 18:51:11 10° N 18:57:37 77° E 19:01:24 26° SSE
Cosmos 1674 3.7 18:54:10 10° NNW 18:57:51 45° W 19:00:17 19° SSW
Cosmos 2026 Rocket 3.9 18:52:28 10° N 18:58:52 74° E 19:02:17 30° SSE
Cosmos 1092 Rocket 4.0 18:52:49 10° N 18:59:01 85° W 19:04:17 15° S
Cosmos 1428 Rocket 4.3 19:01:08 10° N 19:07:25 81° E 19:10:06 36° SSE
TSX-5 4.5 19:04:35 10° SW 19:08:20 59° WNW 19:13:08 10° NNE
ARGOS 4.3 19:03:44 10° SSW 19:08:45 41° W 19:13:51 10° NNW
Cosmos 1340 Rocket 4.1 19:15:11 33° N 19:15:11 33° N 19:17:28 10° N
CZ-2C R/B 3.0 19:08:30 10° N 19:14:03 71° WNW 19:19:39 10° SSW
Cosmos 2279 Rocket 3.9 19:12:59 52° SE 19:14:08 62° E 19:20:19 10° NNE
Cosmos 1733 4.0 19:13:47 32° SW 19:15:11 49° WNW 19:18:55 10° N
MOS 1 4.5 19:13:05 30° S 19:16:01 70° WSW 19:21:44 10° NNW
Lacrosse 5 rocket 3.5 19:17:29 10° NNW 19:20:43 20° NNE 19:20:43 20° NNE
Cosmos 2082 Rocket 3.0 19:16:42 10° NNW 19:21:17 37° NE 19:21:17 37° NE
Cosmos 2098 Rocket 4.4 19:15:51 10° N 19:21:19 42° NE 19:21:19 42° NE
DMSP B5D2-2 4.4 19:18:38 10° N 19:23:52 65° WNW 19:29:05 10° SSW
BREEZE-M R/B 4.3 19:16:46 10° W 19:24:15 44° NNW 19:24:25 44° NNW
BREEZE-M DEB (TANK) 4.3 19:20:44 10° WNW 19:24:40 46° SSW 19:27:36 34° SSE
OBJECT-B 3.4 19:28:48 18° NNW 19:28:48 18° NNW 19:29:47 10° NNW
Cosmos 2142 Rocket 4.4 19:24:38 31° S 19:27:52 90° SW 19:34:08 10° N
Ariane Rocket 4.1 19:28:06 24° SSW 19:30:37 41° W 19:35:26 10° NNW
Milstar 3 Cent rocket 4.2 19:29:53 10° SW 19:32:39 16° SSW 19:32:39 16° SSW
USA 234 4.2 19:38:14 31° SSW 19:38:14 31° SSW 19:41:36 10° SSW
Cosmos 1626 4.3 19:39:48 10° NNW 19:42:02 26° WNW 19:42:02 26° WNW
COSMOS 2406 3.5 19:42:20 10° NNW 19:47:55 61° WSW 19:47:55 61° WSW
ISS -0.5 19:47:08 10° NW 19:47:46 13° NW 19:47:46 13° NW
Cosmos 2278 Rocket 2.7 19:44:42 10° SSW 19:51:32 53° N 19:56:00 10° NNE
Lacrosse 4 Rocket 3.6 19:51:28 10° NNW 19:52:52 20° NNW 19:52:52 20° NNW
Cosmos 909 Rocket 4.3 19:54:27 10° NNW 19:59:55 59° N 19:59:55 59° N
Resurs 01 Rocket 3.4 20:03:26 29° NNW 20:03:26 29° NNW 20:05:44 10° NNW
Cosmos 1833 Rocket 3.6 20:07:30 10° NW 20:11:54 45° WNW 20:11:54 45° WNW
ATLAS 2AS CENTAUR R/B 4.2 20:17:57 10° WSW 20:25:19 40° NW 20:32:37 10° NNE
ATLAS 3B R/B 3.3 20:24:02 10° NW 20:29:50 50° W 20:29:50 50° W
Cosmos 2082 Rocket 4.3 21:00:57 10° NW 21:03:08 21° WNW 21:03:08 21° WNW
